Flag for Austria Weather past 2 weeks in Linz, Upper Austria, Austria

36 °F


Feels Like: 28 °F
Forecast: 44 / 47 °F
Wind: 10 mph from Southwest

Location: Linz / Hoersching-Flughafen

Current Time: Nov 29, 2015 at 5:35:45 AM

Latest Report: Nov 29, 2015 at 4:50 AM

Visibility: 10 mi

Pressure: 30.12 "Hg

Humidity: 75%

Dew point: 28 °F

Location of LinzLocation

Historic Weather in Linz — Graph


Linz temperature yesterday

Maximum temperature yesterday: 39 °F (at 11:50 AM)
Minimum temperature yesterday: 34 °F (at 3:50 AM)
Average temperature yesterday: 37 °F

Past Weeks' High & Low Weather Summary

High63 °F (Nov 18, 9:20 AM)100% (Nov 15, 7:50 AM)30.42 "Hg (Nov 15, 7:50 AM)
Low21 °F (Nov 25, 5:20 AM)45% (Nov 18, 11:50 AM)29.42 "Hg (Nov 21, 1:50 PM)
Average42 °F82%29.97 "Hg
* Reported Nov 14 3:20 AM — Nov 29 3:50 AM, Linz, Weather by CustomWeather, © 2015

Note: Actual official high and low records may vary slightly from our data, if they occured in-between our weather recording intervals... More about our weather records


Linz weather history for previous 24 hours

Time TempWeatherWind HumidityBarometerVisibility
3:50 AM
Sun, Nov 29
36 °FClear.10 mph81%30.15 "Hg10 mi
3:20 AM36 °FClear.9 mph81%30.15 "Hg10 mi
2:50 AM36 °FClear.8 mph81%30.15 "Hg10 mi
2:20 AM37 °FPassing clouds.8 mph81%30.15 "HgN/A
1:50 AM37 °FPassing clouds.12 mph81%30.15 "HgN/A
1:20 AM37 °FPassing clouds.13 mph81%30.15 "HgN/A
12:50 AM37 °FPassing clouds.14 mph87%30.15 "HgN/A
12:20 AM37 °FPassing clouds.16 mph87%30.15 "HgN/A
11:50 PM
Sat, Nov 28
37 °FPassing clouds.15 mph87%30.15 "HgN/A
10:50 PM37 °FPartly cloudy.17 mph93%30.15 "HgN/A
9:50 PM39 °FSprinkles. Partly cloudy.14 mph87%30.12 "HgN/A
9:20 PM39 °FPartly cloudy.14 mph87%30.12 "HgN/A
8:50 PM37 °FLight rain. Partly cloudy.10 mph93%30.12 "HgN/A
8:20 PM37 °FSprinkles. Partly cloudy.12 mph93%30.09 "Hg5 mi
7:50 PM37 °FSprinkles. Partly cloudy.14 mph93%30.09 "Hg6 mi
7:20 PM37 °FSprinkles. Partly cloudy.12 mph93%30.09 "HgN/A
6:50 PM37 °FSprinkles. Partly cloudy.15 mph87%30.07 "HgN/A
6:20 PM37 °FSprinkles. Passing clouds.13 mph93%30.07 "HgN/A
5:50 PM37 °FPassing clouds.12 mph87%30.07 "HgN/A
5:20 PM37 °FSprinkles. Passing clouds.15 mph87%30.04 "Hg5 mi
4:50 PM37 °FPassing clouds.16 mph87%30.01 "Hg5 mi
4:20 PM37 °FPartly cloudy.16 mph87%30.01 "Hg5 mi
3:50 PM37 °FBroken clouds.20 mph87%29.98 "HgN/A
3:20 PM37 °FLight rain. Partly sunny.16 mph87%29.98 "HgN/A
2:50 PM36 °FLight rain. Broken clouds.16 mph93%29.95 "Hg6 mi
2:20 PM36 °FLight rain. Broken clouds.20 mph93%29.95 "Hg5 mi
1:50 PM37 °FLight rain. Broken clouds.21 mph81%29.95 "HgN/A
1:20 PM39 °FPartly sunny.20 mph65%29.92 "HgN/A
12:50 PM39 °FPartly sunny.17 mph61%29.92 "HgN/A
12:20 PM39 °FScattered clouds.20 mph65%29.92 "HgN/A
11:50 AM39 °FPassing clouds.16 mph65%29.92 "HgN/A
11:20 AM37 °FScattered clouds.13 mph70%29.92 "HgN/A
10:50 AM37 °FPartly sunny.14 mph70%29.92 "HgN/A
10:20 AM36 °FPartly sunny.15 mph75%29.92 "HgN/A
9:50 AM36 °FPartly sunny.10 mph81%29.92 "HgN/A
9:20 AM36 °FPartly sunny.9 mph87%29.92 "Hg4 mi
8:50 AM34 °FPartly sunny.7 mph93%29.92 "Hg4 mi
7:20 AM34 °FMostly cloudy.9 mph93%29.92 "Hg4 mi
6:50 AM34 °FMostly cloudy.10 mph93%29.92 "Hg4 mi
6:20 AM34 °FPartly cloudy.13 mph93%29.92 "Hg4 mi
5:50 AM36 °FPartly cloudy.8 mph93%29.89 "Hg5 mi
5:20 AM36 °FPartly cloudy.6 mph93%29.89 "Hg6 mi
Weather by CustomWeather, © 2015

See weather overviewHow to use our weather pages